www.pogodaiklimat.ru

Погода и климат >> Архив погоды >> Индия >> Coimbatore


ПОГОДА в Coimbatore

  • Прогноз погоды в Coimbatore
  • Монитор погоды в Coimbatore
  • Климат города

АРХИВ ПОГОДЫ в Coimbatore

Время (UTC), дата Ветер
(напр.,м/с)
 
Видим.   Явления Облачность Т
(С)
Тd
(С)
f
(%)
Тe
(С)
Тes
(С)
Комфортность P
(гПа)
Po
(гПа)
Тmin
(С)
Tmax
(С)
R
(мм)
R24
(мм)
S
(см)
15 11.11 штиль 0 4000 м мгла 5/3 450 м
[Sc Ci fib]
+26.0 +16.7 57 +30 +30 душно 1012.9 968.3
18 11.11 штиль 0 4000 м дымка 5/3 450 м
[Sc Ci fib]
+24.4 +21.1 82 +31 +31 очень
душно
1013.0 968.2
21 11.11 штиль 0 4000 м дымка 5/1 450 м
[Sc Ci fib]
+23.4 +21.9 91 +32 +32 очень
душно
1011.7 966.9
00 12.11 штиль 0 1000 м дымка 5/1 450 м
[Sc Ci fib]
+21.4 +19.8 91 +26 +26 душно 1012.3 967.1
03 12.11 штиль 0 2000 м дымка 5/1 450 м
[Sc Ci fib]
+25.0 +17.0 61 +29 +33 душно 1013.5 968.7 +20.5 +32.4
06 12.11 штиль 0 4000 м мгла 5/3 450 м
[Sc Ci fib]
+30.0 +17.4 47 +34 +48 очень
душно
1011.8 967.9
09 12.11 СВ 2 4000 м мгла 4/1 450 м
[Sc Ci fib]
+32.0 +13.5 33 +33 +44 жарко 1008.2 964.7
12 12.11 В 2 4000 м мгла 4/1 450 м
[Sc Ci fib]
+30.4 +13.9 37 +32 +33 жарко 1008.3 964.6 +32.9
15 12.11 нст 1 2000 м мгла 4/1 450 м
[Sc Ci fib]
+26.0 +20.5 72 +32 +32 очень
душно
1011.3 966.8
18 12.11 Ю 3 2000 м дымка 4/1 450 м
[Sc Ci fib]
+24.4 +21.7 85 +31 +31 очень
душно
1011.4 966.7
21 12.11 штиль 0 2000 м дымка 4/1 450 м
[Sc Ci fib]
+23.0 +21.8 93 +31 +31 очень
душно
1010.6 965.6
00 13.11 штиль 0 1000 м дымка 4/1 450 м
[Sc Ci fib]
+21.4 +19.8 91 +26 +26 душно 1011.2 966.1
03 13.11 штиль 0 2000 м дымка 3/0
[Ci fib]
+24.0 +20.0 78 +29 +35 душно 1012.7 967.8 +20.6 +32.9
06 13.11 нст 2 4000 м мгла 3/0
[Ci fib]
+29.8 +18.3 50 +35 +50 очень
душно
1010.4 966.5
09 13.11 Ю 3 4000 м мгла 5/3 450 м
[Sc Ci fib]
+32.0 +16.9 40 +35 +41 очень
душно
1006.9 963.4
12 13.11 Ю 3 4000 м мгла 5/1 450 м
[Sc Ac trans Ci fib]
+29.4 +18.6 52 +34 +35 очень
душно
1007.0 963.3 +32.7
15 13.11 штиль 0 4000 м мгла 5/1 450 м
[Sc Ci fib]
+26.4 +20.6 70 +33 +33 очень
душно
1009.9 965.5
18 13.11 Ю 3 2000 м дымка 4/0
[Ci fib]
+24.4 +21.7 85 +31 +31 очень
душно
1009.9 965.3
21 13.11 штиль 0 2000 м дымка 4/0
[Ci fib]
+23.2 +21.7 91 +31 +31 очень
душно
1008.9 964.2
00 14.11 штиль 0 1000 м дымка {туман} 4/0
[Ci fib]
+21.6 +20.7 95 +27 +27 душно 1010.5 965.4
03 14.11 нст 2 2000 м дымка 4/0
[Ci fib]
+23.2 +18.5 75 +29 +33 душно 1012.1 967.3 +19.7 +32.7
06 14.11 нст 2 4000 м мгла 4/0
[Ci fib]
+28.8 +18.2 53 +34 +49 очень
душно
1010.1 966.1
09 14.11 штиль 0 4000 м мгла 4/0
[Ci fib]
+32.4 +15.4 36 +35 +49 душно 1006.7 963.4
12 14.11 0 мгла н/о +15.5 1006.8 963.2 +33.0
15 14.11 штиль 0 4000 м мгла 4/0
[Ci fib]
+25.2 +17.5 62 +29 +29 душно 1010.3 965.8
18 14.11 штиль 0 4000 м дымка 4/0
[Ci fib]
+23.4 +19.3 78 +30 +30 очень
душно
1010.7 965.9
21 14.11 штиль 0 2000 м дымка 4/0
[Ci fib]
+22.4 +19.6 84 +28 +28 душно 1010.5 965.6
00 15.11 СЗ 3 1000 м дымка 4/0
[Ci fib]
+20.8 +17.9 83 +25 +25 комфорт 1011.1 965.9
03 15.11 штиль 0 2000 м дымка 4/0
[Ci fib]
+23.8 +19.4 76 +29 +34 душно 1012.3 967.5 +19.6 +33.0
06 15.11 штиль 0 4000 м мгла 4/0
[Ci fib]
+30.4 +15.6 41 +33 +52 опасность
солнечного
удара
1010.1 966.3
09 15.11 СВ 3 4000 м мгла 4/0
[Ci fib]
+33.0 +14.5 33 +35 +43 душно 1007.0 963.6
12 15.11 В 3 4000 м мгла 8/1 450 м
[Sc Ac trans Ci fib]
+32.0 +13.5 33 +33 +33 жарко 1007.0 963.5 +33.7
15 15.11 В 4 4000 м мгла 9/1 450 м
[Sc Ac trans Ci fib]
+28.8 +19.3 56 +34 +34 очень
душно
1010.0 966.0
18 15.11 штиль 0 4000 м слабая морось {дождь} 9/4 360 м
[Sc Ac As Ci fib]
+25.4 +22.7 85 +33 +33 очень
душно
1010.6 966.1
21 15.11 штиль 0 4000 м дымка {дождь, морось} 9/4 360 м
[Sc Ac As Ci fib]
+24.4 +22.9 91 +32 +32 очень
душно
1009.3 964.7 1
00 16.11 штиль 0 4000 м дымка {дождь, морось} 9/4 360 м
[Sc Ac As Ci fib]
+24.0 +22.5 91 +31 +31 очень
душно
1008.9 964.2
03 16.11 штиль 0 1000 м дождь {морось} 10/4 360 м
[Sc As op]
+23.4 +22.5 95 +32 +33 очень
душно
1011.2 966.4 +23.2 +33.7 7
06 16.11 С 3 2000 м слабый дождь {морось} 10/4 240 м
[Frnb As op]
+23.4 +22.5 95 +32 +34 очень
душно
1011.0 966.2
09 16.11 СВ 5 2000 м дымка {дождь, морось} 10/5 240 м
[Cb cap As op]
+24.0 +22.5 91 +31 +32 очень
душно
1008.2 963.6 6
12 16.11 С 5 4000 м дымка {дождь, морось} 10/5 240 м
[St Ac As]
+23.6 +22.1 91 +30 +30 очень
душно
1009.5 964.8 +24.7
15 16.11 С 3 2000 м дымка 10/4 360 м
[Sc diur, vesp Ac As]
+23.4 +21.9 91 +32 +32 очень
душно
1012.1 966.7 6
18 16.11 штиль 0 2000 м дымка 9/4 360 м
[Sc Ac trans]
+23.4 +21.9 91 +32 +32 очень
душно
1012.6 967.7
21 16.11 штиль 0 2000 м дымка 9/4 360 м
[Sc diur, vesp Ac As]
+23.0 +21.5 91 +31 +31 очень
душно
1011.2 966.2 6
00 17.11 штиль 0 2000 м дымка {дождь} 10/4 360 м
[Sc diur, vesp Ac As]
+22.6 +21.1 91 +30 +30 очень
душно
1012.1 967.1
03 17.11 нст 2 2000 м дымка 9/4 360 м
[Sc diur, vesp Ac As]
+24.0 +21.3 85 +30 +32 очень
душно
1014.3 969.4 +22.3 +24.7 7
06 17.11 нст 2 4000 м мгла 8/3 450 м
[Sc diur, vesp Ac trans Ci sp]
+27.0 +19.3 63 +33 +40 очень
душно
1012.9 968.4
09 17.11 нст 1 4000 м мгла 8/4 450 м
[Sc diur, vesp Ac trans Ci fib]
+28.6 +19.0 56 +34 +39 очень
душно
1009.3 965.3
12 17.11 нст 1 4000 м мгла 6/3 450 м
[Sc Ac trans Ci fib]
+28.6 +19.0 56 +34 +34 очень
душно
1009.2 965.2 +29.7
15 17.11 штиль 0 4000 м мгла 6/1 450 м
[Sc Ac trans Ci fib]
+25.6 +21.1 76 +32 +32 очень
душно
1012.3 967.8
18 17.11 штиль 0 4000 м дымка 5/3 450 м
[Sc Ci fib]
+24.4 +21.1 82 +31 +31 очень
душно
1013.1 968.3
21 17.11 штиль 0 2000 м дымка 5/3 450 м
[Sc Ci fib]
+23.8 +21.7 88 +30 +30 очень
душно
1011.2 966.4
00 18.11 штиль 0 2000 м дымка 6/4 360 м
[Sc Ci fib]
+23.8 +22.3 91 +31 +31 очень
душно
1011.5 966.7
03 18.11 В 3 2000 м дымка 6/4 360 м
[Sc diur, vesp Ci fib]
+25.8 +22.5 82 +34 +36 очень
душно
1014.1 969.5 +23.4 +29.7
06 18.11 СВ 4 4000 м мгла 8/3 450 м
[Sc Ac trans Ci fib]
+29.0 +20.6 61 +36 +41 очень
душно
1013.2 969.1
09 18.11 В 4 4000 м мгла 9/4 360 м
[Cu med, cong Ac trans Ci fib]
+30.0 +20.0 55 +36 +39 очень
душно
1009.4 965.5

 

Местоположение метеостанции Coimbatore (Tamil Nadu, Индия): широта 11.03 долгота 77.05 высота над уровнем моря 399 м.

В архиве по умолчанию представлена погода в Coimbatore за последнюю неделю. Архивные данные за месяц целиком и за предыдущие месяцы, начиная с января 2011 года, Вы можете получить, выбрав интересующий диапазон дат из раскрывающегося списка и нажав кнопку "Ввод!".


*Определитесь, кто Вы:
робот инопланетянин человек

Внимание! Время в таблицах - всемирное. Для получения местного времени необходимо прибавить поправку, которая в Coimbatore равна 5.5 ч.

Смотрите также архив погоды в соседних городах и на ближайших метеорологических станциях:

Погода в Coonoor (Tamil Nadu, Индия) (45 км)
Погода в Palakkad (Kerala, Индия) (52 км)
Погода в Udhagamandalam (Tamil Nadu, Индия) (54 км)
Погода в Valparai (Tamil Nadu, Индия) (84 км)
Погода в Kodaikanal (Tamil Nadu, Индия) (100 км)
Погода в Chamarajnagar (Karnataka, Индия) (101 км)
Погода в Thrissur (Kerala, Индия) (107 км)
Погода в Paramathy (Tamil Nadu, Индия) (113 км)
Погода в Periakulam (Tamil Nadu, Индия) (115 км)
Погода в Karipur (Kerala, Индия) (121 км)

Пояснения к столбцам:

Ветер - указаны скорость ветра в м/с - средняя за 10 мин, порывы в срок и между сроками (в фигурных скобках) и направление, откуда дует ветер: С - северный, СВ - северо-восточный, В - восточный, ЮВ - юго-восточный, Ю - южный, ЮЗ - юго-западный, З - западный, СЗ - северо-западный.
Видимость - горизонтальная дальность видимости в метрах или километрах. При видимости от 1 до 10 км при отсутствии осадков обычно наблюдается дымка, при ухудшении видимости до 1 км и менее - туман. В сухую погоду видимость может ухудшаться дымом, пылью или мглою.
Явления - указаны атмосферные явления, наблюдавшиеся в срок или в последний час перед сроком; фигурными скобками обозначены явления, наблюдавшиеся между сроками (за 1-3 часа до срока); квадратными скобками обозначены град или гололедные отложения с указанием их диаметра в мм.
Облачность - указаны через наклонную черту общая и нижняя облачность в баллах и высота нижней границы облаков в метрах; квадратными скобками обозначены формы облаков: Ci - перистые, Cs - перисто-слоистые, Cc - перисто-кучевые, Ac - высококучевые, As - высокослоистые, Sc - слоисто-кучевые, Ns - слоисто-дождевые, Cu - кучевые, Cb - кучево-дождевые. Подробнее классификацию облаков см. в Атласе облаков (PDF).
T - Температура воздуха - температура, измеренная на высоте 2 м над землей.
Td - Температура точки росы - температура, при понижении до которой содержащийся в воздухе водяной пар достигнет насыщения.
f - Относительная влажность воздуха - влажноcть воздуха, измеренная на высоте 2 м над землей.
Te - Эффективная температура - температура, которую ощущает одетый по сезону человек в тени. Характеристика душности погоды. При расчете учитывается влияние влажности воздуха и скорости ветра на теплоощущения человека.
Tes - Эффективная температура на солнце - температура, которую ощущает человек, с поправкой на солнечный нагрев. Характеристика знойности погоды. Зависит от высоты солнца над горизонтом, облачности и скорости ветра. Ночью, в пасмурную погоду, а также при ветре 12 м/с и более поправка равна нулю.
P - Атмосферное давление - приведенное к уровню моря атмосферное давление.
Po - Атмосферное давление - измеренное на уровне метеостанции атмосферное давление.
Tmin - Минимальная температура - минимум температуры воздуха на высоте 2 м над землей.
Tmax - Максимальная температура - максимум температуры воздуха на высоте 2 м над землей.
R - Количество осадков - Количество выпавших осадков за период времени, мм. При наведении курсора мыши на число - период времени, за который выпало указанное количество осадков.
R24 - Количество осадков - Количество выпавших осадков за 24 часа, мм.
S - Снежный покров - Высота снежного покрова, см. При наведении курсора мыши на число - состояние снежного покрова и степень покрытия местности в баллах.